Hourly Weather Roundup
Issued by NWS Central Illinois

Home | Current Version | Previous Version | Text Only | Print | Product List | Glossary On
Versions: 1 2 3 4 5 6 7 8 9 10 11 12 13 14 15 16 17 18 19 20 21 22 23 24 25 26 27 28 29 30 31 32 33 34 35 36 37 38 39 40 41 42 43 44 45 46 47 48 49 50
000
NZUS43 KILX 140610
HWRILX

AREA WEATHER ROUNDUP
NATIONAL WEATHER SERVICE, LINCOLN IL
100 AM CDT MON JUL 14 2014


CITY           SKY/WX    TMP DP  RH WIND       PRES   REMARKS
BLOOMINGTON    CLEAR     71  65  81 CALM      29.94F
CHAMPAIGN      PTCLDY    70  69  97 NW7       29.92F
6HR MIN TEMP:  70; 6HR MAX TEMP:  81;

DECATUR        PTCLDY    71  68  90 CALM      29.93F
6HR MIN TEMP:  70; 6HR MAX TEMP:  83;

EFFINGHAM      CLOUDY    76  72  87 W3        29.92S
FLORA          CLOUDY    73  72  96 S6        29.93F
6HR MIN TEMP:  73; 6HR MAX TEMP:  86; 6HR PCP:  0.33;

GALESBURG      CLOUDY    67  65  94 CALM      29.94S
JACKSONVILLE   FOG       71  71  97 CALM      29.94S VSB 1/4
6HR MIN TEMP:  71; 6HR MAX TEMP:  83;

LACON          PTCLDY    68  65  92 CALM      29.92F
6HR MIN TEMP:  68; 6HR MAX TEMP:  82;

LAWRENCEVILLE  CLOUDY    74  72  93 SE3       29.91F
6HR MIN TEMP:  73; 6HR MAX TEMP:  77; 6HR PCP: TRACE;

LITCHFIELD     CLOUDY    73  72  99 NW5       29.95
$$


CITY           SKY/WX    TMP DP  RH WIND       PRES   REMARKS
LINCOLN        CLEAR     69  67  93 CALM      29.90F
6HR MIN TEMP:  68; 6HR MAX TEMP:  83;

MACOMB         MOCLDY    67  66  96 CALM      29.95F
MATTOON        CLOUDY    74  71  91 W3        29.92R
6HR MIN TEMP:  73; 6HR MAX TEMP:  82;

MT CARMEL AP   CLOUDY    77  73  88 SW9G16    29.92S
OLNEY-NOBLE AP TSTM      72  70  94 CALM      29.91F
PARIS          CLOUDY    69  69  99 CALM      29.92S THUNDER FOG
6HR MIN TEMP:  69; 6HR MAX TEMP:  82;

PEORIA         MOCLDY    71  66  84 CALM      29.92F
6HR MIN TEMP:  71; 6HR MAX TEMP:  81; 6HR PCP: TRACE;

PONTIAC        LGT RAIN  73  63  68 CALM      29.92F
RANTOUL        PTCLDY    71  66  84 NW5       29.93F
6HR MIN TEMP:  70; 6HR MAX TEMP:  82;

ROBINSON       CLOUDY    76  75  96 S6        29.92S
6HR MIN TEMP:  75; 6HR MAX TEMP:  81;

SPRINGFIELD    PTCLDY    70  68  93 W3        29.93F
6HR MIN TEMP:  70; 6HR MAX TEMP:  85;

TAYLORVILLE    MOCLDY    68  68 100 CALM      29.93S FOG
$$

...REGIONAL REPORTS...


CITY           SKY/WX    TMP DP  RH WIND       PRES   REMARKS
CHICAGO O`HARE PTCLDY    70  50  49 W8        29.91R
KANKAKEE       CLOUDY    71  68  91 W5        29.92F
MOLINE         CLEAR     65  63  93 CALM      29.92S
MOUNT VERNON   CLOUDY    73  68  83 S17       29.96R
PITTSFIELD     PTCLDY    72  69  93 SW3       29.95S
QUINCY         CLEAR     71  68  90 CALM      29.93F
ROCKFORD       PTCLDY    64  54  69 CALM      29.93R
$$


CITY           SKY/WX    TMP DP  RH WIND       PRES   REMARKS
BURLINGTON     PTCLDY    70  68  93 CALM      29.93S
CEDAR RAPIDS   CLEAR     67  65  93 SW6       29.91S
DES MOINES     PTCLDY    73  66  78 CALM      29.93S
KIRKSVILLE     PTCLDY    69  67  93 CALM      29.97F
OTTUMWA        CLEAR     66  64  93 S3        29.93S
ST LOUIS       CLOUDY    78  74  87 SW3       29.95F HX  81
$$


CITY           SKY/WX    TMP DP  RH WIND       PRES   REMARKS
TERRE HAUTE    CLOUDY    73  70  90 CALM      29.90F
EVANSVILLE     CLOUDY    75  69  81 W16G23    29.95R
INDIANAPOLIS   MOCLDY    72  69  90 NW5       29.90F
LAFAYETTE      PTCLDY    66  65  96 CALM      29.90F
MADISON        CLEAR     60  56  86 CALM      29.90F
MILWAUKEE      PTCLDY    66  51  58 W3        29.90S
$$





USA.gov is the U.S. government's official web portal to all federal, state and local government web resources and services.